TEJ126 SCEL-SCQP

Flight info

Callsign TEJ126
Flight time 0h 57m
Altitude 35000
Route ANGOD6C ANGOD UQ803 SUMKO SUMKO4E
Aircraft A21N/M-SDE2E3FGHIRWXY/LB1

Departure

Time 2026-04-17 22:00
Airport Comodoro Arturo Merino Benítez International Airport (SCEL)

Arrival

Time 2026-04-17 22:58
Airport La Araucanía International Airport (SCQP)
Time Latitude Longitude Altitude Speed Heading
2026-04-17 18:14 -33.39714 -70.79011 1570 ft 0 kts 357°
2026-04-17 21:47 -33.39727 -70.79010 1570 ft 4 kts 357°
2026-04-17 21:47 -33.39754 -70.79009 1570 ft 4 kts 359°
2026-04-17 21:47 -33.39780 -70.79011 1570 ft 4 kts 19°
2026-04-17 21:48 -33.39795 -70.79024 1570 ft 3 kts 87°
2026-04-17 21:48 -33.39796 -70.79053 1570 ft 4 kts 88°
2026-04-17 21:48 -33.39797 -70.79062 1570 ft 0 kts 87°
2026-04-17 21:50 -33.39796 -70.79056 1570 ft 2 kts 87°
2026-04-17 21:50 -33.39795 -70.79027 1570 ft 5 kts 87°
2026-04-17 21:51 -33.39793 -70.78974 1570 ft 8 kts 87°
2026-04-17 21:51 -33.39789 -70.78903 1570 ft 6 kts 83°
2026-04-17 21:51 -33.39786 -70.78879 1570 ft 0 kts 78°
2026-04-17 21:53 -33.39784 -70.78873 1570 ft 2 kts 77°
2026-04-17 21:53 -33.39779 -70.78848 1570 ft 5 kts 75°
2026-04-17 21:54 -33.39768 -70.78800 1570 ft 7 kts 74°
2026-04-17 21:54 -33.39722 -70.78775 1570 ft 10 kts 357°
2026-04-17 21:54 -33.39644 -70.78779 1570 ft 13 kts 357°
2026-04-17 21:54 -33.39548 -70.78785 1570 ft 15 kts 357°
2026-04-17 21:55 -33.39436 -70.78790 1570 ft 17 kts 357°
2026-04-17 21:55 -33.39312 -70.78797 1570 ft 19 kts 357°
2026-04-17 21:55 -33.39177 -70.78803 1570 ft 20 kts 358°
2026-04-17 21:55 -33.39034 -70.78810 1569 ft 21 kts 358°
2026-04-17 21:56 -33.38933 -70.78814 1569 ft 22 kts 357°
2026-04-17 21:56 -33.38773 -70.78827 1570 ft 24 kts 357°
2026-04-17 21:56 -33.38622 -70.78832 1571 ft 22 kts 356°
2026-04-17 21:56 -33.38426 -70.78844 1573 ft 8 kts 357°
2026-04-17 21:57 -33.38359 -70.78846 1572 ft 11 kts 358°
2026-04-17 21:57 -33.38272 -70.78851 1572 ft 14 kts 358°
2026-04-17 21:57 -33.38203 -70.78854 1571 ft 16 kts 358°
2026-04-17 21:57 -33.38085 -70.78860 1571 ft 18 kts 358°
2026-04-17 21:58 -33.37951 -70.78867 1571 ft 20 kts 356°
2026-04-17 21:58 -33.37804 -70.78876 1570 ft 23 kts 357°
2026-04-17 21:58 -33.37695 -70.78882 1570 ft 8 kts 357°
2026-04-17 21:58 -33.37635 -70.78855 1569 ft 11 kts 54°
2026-04-17 21:59 -33.37621 -70.78773 1569 ft 10 kts 86°
2026-04-17 21:59 -33.37627 -70.78679 1569 ft 13 kts 137°
2026-04-17 21:59 -33.37644 -70.78670 1571 ft 0 kts 172°
2026-04-17 21:59 -33.37672 -70.78665 1572 ft 13 kts 173°
2026-04-17 22:00 -33.37892 -70.78648 1570 ft 65 kts 177°
2026-04-17 22:00 -33.38591 -70.78616 1570 ft 141 kts 178°
2026-04-17 22:00 -33.39785 -70.78552 1863 ft 185 kts 177°
2026-04-17 22:00 -33.41077 -70.78469 2821 ft 188 kts 177°
2026-04-17 22:01 -33.42440 -70.78380 3493 ft 206 kts 177°
2026-04-17 22:01 -33.43950 -70.78300 4045 ft 231 kts 177°
2026-04-17 22:01 -33.45652 -70.78206 4526 ft 257 kts 176°
2026-04-17 22:01 -33.47498 -70.78100 5189 ft 272 kts 176°
2026-04-17 22:02 -33.49423 -70.77987 5946 ft 283 kts 177°
2026-04-17 22:02 -33.51384 -70.77873 6781 ft 288 kts 177°
2026-04-17 22:02 -33.53407 -70.77791 7632 ft 294 kts 183°
2026-04-17 22:02 -33.55450 -70.78159 8456 ft 299 kts 194°
2026-04-17 22:03 -33.57494 -70.78741 9338 ft 305 kts 196°
2026-04-17 22:03 -33.59576 -70.79351 10162 ft 312 kts 197°
2026-04-17 22:03 -33.61753 -70.80035 10612 ft 334 kts 198°
2026-04-17 22:03 -33.64074 -70.80779 10964 ft 357 kts 198°
2026-04-17 22:04 -33.66556 -70.81567 11303 ft 379 kts 197°
2026-04-17 22:04 -33.69164 -70.82384 11832 ft 390 kts 198°
2026-04-17 22:04 -33.71776 -70.83197 12864 ft 388 kts 198°
2026-04-17 22:04 -33.74402 -70.84013 13740 ft 391 kts 198°
2026-04-17 22:05 -33.77018 -70.84827 14467 ft 395 kts 198°
2026-04-17 22:05 -33.79679 -70.85653 15245 ft 396 kts 199°
2026-04-17 22:05 -33.82348 -70.86485 16033 ft 397 kts 199°
2026-04-17 22:05 -33.85022 -70.87321 16772 ft 397 kts 199°
2026-04-17 22:06 -33.87698 -70.88157 17495 ft 398 kts 199°
2026-04-17 22:06 -33.90394 -70.88998 18221 ft 401 kts 199°
2026-04-17 22:06 -33.93096 -70.89841 18857 ft 402 kts 200°
2026-04-17 22:06 -33.95806 -70.90688 19489 ft 402 kts 200°
2026-04-17 22:07 -33.98518 -70.91538 20199 ft 402 kts 201°
2026-04-17 22:07 -34.01234 -70.92384 20865 ft 404 kts 201°
2026-04-17 22:07 -34.03975 -70.93149 21480 ft 405 kts 200°
2026-04-17 22:07 -34.06737 -70.93897 22150 ft 407 kts 200°
2026-04-17 22:08 -34.09432 -70.94627 22832 ft 409 kts 200°
2026-04-17 22:08 -34.12284 -70.95400 23515 ft 410 kts 200°
2026-04-17 22:08 -34.15046 -70.96151 24042 ft 412 kts 201°
2026-04-17 22:08 -34.17847 -70.96915 24543 ft 415 kts 201°
2026-04-17 22:09 -34.20694 -70.97694 24827 ft 423 kts 201°
2026-04-17 22:09 -34.23569 -70.98478 25332 ft 422 kts 200°
2026-04-17 22:09 -34.26416 -70.99250 25940 ft 419 kts 201°
2026-04-17 22:09 -34.29261 -71.00025 26498 ft 417 kts 201°
2026-04-17 22:10 -34.32097 -71.00800 26893 ft 419 kts 201°
2026-04-17 22:10 -34.34959 -71.01584 27239 ft 423 kts 201°
2026-04-17 22:10 -34.37836 -71.02374 27605 ft 425 kts 201°
2026-04-17 22:10 -34.40735 -71.03168 27971 ft 428 kts 201°
2026-04-17 22:11 -34.43639 -71.03963 28327 ft 429 kts 201°
2026-04-17 22:11 -34.46571 -71.04766 28675 ft 432 kts 201°
2026-04-17 22:11 -34.49512 -71.05573 29015 ft 434 kts 202°
2026-04-17 22:11 -34.52469 -71.06386 29376 ft 437 kts 201°
2026-04-17 22:12 -34.55403 -71.07191 29692 ft 439 kts 202°
2026-04-17 22:12 -34.58381 -71.08009 29977 ft 440 kts 202°
2026-04-17 22:12 -34.61374 -71.08833 30247 ft 443 kts 202°
2026-04-17 22:12 -34.64387 -71.09663 30520 ft 444 kts 202°
2026-04-17 22:13 -34.67412 -71.10496 30788 ft 446 kts 202°
2026-04-17 22:13 -34.70442 -71.11333 31042 ft 447 kts 202°
2026-04-17 22:13 -34.73489 -71.12140 31344 ft 448 kts 200°
2026-04-17 22:13 -34.76535 -71.12879 31768 ft 445 kts 201°
2026-04-17 22:14 -34.79564 -71.13613 32145 ft 443 kts 201°
2026-04-17 22:14 -34.82585 -71.14347 32484 ft 441 kts 201°
2026-04-17 22:14 -34.85596 -71.15078 32821 ft 440 kts 201°
2026-04-17 22:14 -34.88597 -71.15809 33153 ft 439 kts 201°
2026-04-17 22:15 -34.91588 -71.16537 33469 ft 438 kts 201°
2026-04-17 22:15 -34.94574 -71.17263 33780 ft 437 kts 201°
2026-04-17 22:15 -34.97518 -71.17980 34069 ft 436 kts 201°
2026-04-17 22:15 -35.00492 -71.18705 34321 ft 434 kts 201°
2026-04-17 22:16 -35.03457 -71.19428 34561 ft 434 kts 201°
2026-04-17 22:16 -35.06417 -71.20150 34775 ft 433 kts 201°
2026-04-17 22:16 -35.09370 -71.20873 34962 ft 434 kts 201°
2026-04-17 22:17 -35.15297 -71.22324 35010 ft 434 kts 201°
2026-04-17 22:17 -35.21179 -71.23767 34998 ft 434 kts 201°
2026-04-17 22:18 -35.27105 -71.25220 35006 ft 434 kts 201°
2026-04-17 22:18 -35.33024 -71.26674 35016 ft 434 kts 201°
2026-04-17 22:19 -35.38945 -71.28131 35028 ft 434 kts 201°
2026-04-17 22:19 -35.44878 -71.29595 35027 ft 434 kts 201°
2026-04-17 22:20 -35.50788 -71.31052 35022 ft 431 kts 202°
2026-04-17 22:20 -35.56627 -71.32493 35024 ft 425 kts 202°
2026-04-17 22:21 -35.62492 -71.33956 35026 ft 435 kts 202°
2026-04-17 22:21 -35.68426 -71.35430 35023 ft 436 kts 202°
2026-04-17 22:22 -35.74328 -71.36896 35027 ft 435 kts 202°
2026-04-17 22:22 -35.80274 -71.38376 35016 ft 436 kts 202°
2026-04-17 22:23 -35.86216 -71.39858 35022 ft 434 kts 202°
2026-04-17 22:23 -35.92121 -71.41332 35022 ft 430 kts 202°
2026-04-17 22:24 -35.97986 -71.42804 35026 ft 435 kts 202°
2026-04-17 22:24 -36.03941 -71.44302 35026 ft 437 kts 202°
2026-04-17 22:25 -36.09882 -71.45790 35040 ft 437 kts 202°
2026-04-17 22:25 -36.15856 -71.47290 35034 ft 438 kts 202°
2026-04-17 22:26 -36.21816 -71.48788 35015 ft 434 kts 202°
2026-04-17 22:26 -36.27700 -71.50271 35023 ft 432 kts 202°
2026-04-17 22:27 -36.33657 -71.51784 35038 ft 439 kts 202°
2026-04-17 22:27 -36.39656 -71.53299 35038 ft 439 kts 202°
2026-04-17 22:28 -36.45615 -71.54807 35036 ft 439 kts 202°
2026-04-17 22:28 -36.51615 -71.56331 35032 ft 440 kts 202°
2026-04-17 22:29 -36.57595 -71.57849 35022 ft 436 kts 203°
2026-04-17 22:29 -36.63513 -71.59357 35027 ft 436 kts 203°
2026-04-17 22:30 -36.69505 -71.60891 35033 ft 441 kts 202°
2026-04-17 22:30 -36.75489 -71.62413 35031 ft 441 kts 203°
2026-04-17 22:31 -36.81510 -71.63955 35024 ft 441 kts 203°
2026-04-17 22:31 -36.87530 -71.65499 35030 ft 441 kts 202°
2026-04-17 22:32 -36.93500 -71.67025 35007 ft 433 kts 202°
2026-04-17 22:32 -36.99428 -71.68554 34878 ft 433 kts 202°
2026-04-17 22:32 -37.02387 -71.69317 34544 ft 435 kts 202°
2026-04-17 22:33 -37.05350 -71.70081 34289 ft 437 kts 202°
2026-04-17 22:33 -37.08340 -71.70853 34049 ft 439 kts 202°
2026-04-17 22:33 -37.11338 -71.71625 33806 ft 440 kts 202°
2026-04-17 22:33 -37.14306 -71.72392 33551 ft 441 kts 202°
2026-04-17 22:34 -37.17313 -71.73171 33138 ft 440 kts 202°
2026-04-17 22:34 -37.20305 -71.73942 32491 ft 439 kts 202°
2026-04-17 22:34 -37.23297 -71.74715 31755 ft 439 kts 203°
2026-04-17 22:34 -37.26286 -71.75488 31074 ft 439 kts 203°
2026-04-17 22:35 -37.29280 -71.76264 30444 ft 437 kts 203°
2026-04-17 22:35 -37.32252 -71.77035 29788 ft 436 kts 203°
2026-04-17 22:35 -37.35224 -71.77807 29107 ft 434 kts 203°
2026-04-17 22:35 -37.38171 -71.78573 28469 ft 431 kts 202°
2026-04-17 22:36 -37.41097 -71.79333 27875 ft 428 kts 202°
2026-04-17 22:36 -37.44005 -71.80087 27298 ft 424 kts 202°
2026-04-17 22:36 -37.46887 -71.80837 26700 ft 422 kts 202°
2026-04-17 22:36 -37.49760 -71.81587 26108 ft 420 kts 202°
2026-04-17 22:37 -37.52572 -71.82322 25531 ft 417 kts 202°
2026-04-17 22:37 -37.55409 -71.83064 24971 ft 414 kts 201°
2026-04-17 22:37 -37.58234 -71.83803 24387 ft 412 kts 201°
2026-04-17 22:37 -37.61027 -71.84533 23805 ft 408 kts 201°
2026-04-17 22:38 -37.63795 -71.85256 23166 ft 402 kts 201°
2026-04-17 22:38 -37.66522 -71.85970 22538 ft 398 kts 201°
2026-04-17 22:38 -37.69231 -71.86680 21919 ft 396 kts 200°
2026-04-17 22:38 -37.71863 -71.87546 21317 ft 385 kts 209°
2026-04-17 22:39 -37.74214 -71.88955 20761 ft 376 kts 216°
2026-04-17 22:39 -37.76500 -71.90542 20225 ft 374 kts 217°
2026-04-17 22:39 -37.81045 -71.93727 19207 ft 372 kts 217°
2026-04-17 22:40 -37.83316 -71.95306 18710 ft 373 kts 216°
2026-04-17 22:40 -37.85599 -71.96887 18228 ft 374 kts 216°
2026-04-17 22:40 -37.87883 -71.98469 17697 ft 375 kts 216°
2026-04-17 22:40 -37.90184 -72.00060 17181 ft 376 kts 215°
2026-04-17 22:41 -37.92485 -72.01654 16652 ft 377 kts 215°
2026-04-17 22:41 -37.94783 -72.03245 16175 ft 377 kts 215°
2026-04-17 22:41 -37.97093 -72.04847 15688 ft 378 kts 215°
2026-04-17 22:41 -37.99405 -72.06450 15207 ft 378 kts 214°
2026-04-17 22:42 -38.01680 -72.08029 14750 ft 378 kts 214°
2026-04-17 22:42 -38.03985 -72.09630 14281 ft 378 kts 214°
2026-04-17 22:42 -38.06291 -72.11234 13801 ft 378 kts 214°
2026-04-17 22:42 -38.08579 -72.12826 13279 ft 372 kts 214°
2026-04-17 22:43 -38.10828 -72.14391 12806 ft 366 kts 214°
2026-04-17 22:43 -38.13040 -72.15930 12366 ft 359 kts 214°
2026-04-17 22:43 -38.15214 -72.17446 11924 ft 354 kts 214°
2026-04-17 22:43 -38.17359 -72.18945 11477 ft 352 kts 214°
2026-04-17 22:44 -38.19509 -72.20450 11061 ft 351 kts 214°
2026-04-17 22:44 -38.21617 -72.21921 10787 ft 339 kts 215°
2026-04-17 22:44 -38.22968 -72.22863 10629 ft 329 kts 215°
2026-04-17 22:44 -38.25559 -72.24668 10292 ft 311 kts 215°
2026-04-17 22:45 -38.27418 -72.25967 10079 ft 300 kts 215°
2026-04-17 22:45 -38.29233 -72.27242 9856 ft 296 kts 215°
2026-04-17 22:45 -38.31017 -72.28494 9604 ft 289 kts 215°
2026-04-17 22:45 -38.32203 -72.29327 9384 ft 287 kts 215°
2026-04-17 22:46 -38.33922 -72.30536 9056 ft 285 kts 215°
2026-04-17 22:46 -38.35657 -72.31755 8723 ft 284 kts 214°
2026-04-17 22:46 -38.37381 -72.32968 8406 ft 282 kts 214°
2026-04-17 22:46 -38.39097 -72.34175 8089 ft 281 kts 214°
2026-04-17 22:47 -38.40807 -72.35377 7790 ft 280 kts 213°
2026-04-17 22:47 -38.42508 -72.36574 7506 ft 279 kts 213°
2026-04-17 22:47 -38.44201 -72.37765 7197 ft 277 kts 213°
2026-04-17 22:47 -38.45885 -72.38950 6888 ft 276 kts 213°
2026-04-17 22:48 -38.47566 -72.40135 6572 ft 275 kts 212°
2026-04-17 22:48 -38.49217 -72.41300 6271 ft 273 kts 212°
2026-04-17 22:48 -38.50880 -72.42473 5955 ft 271 kts 212°
2026-04-17 22:48 -38.52526 -72.43634 5643 ft 269 kts 212°
2026-04-17 22:49 -38.54153 -72.44783 5336 ft 266 kts 212°
2026-04-17 22:49 -38.55765 -72.45921 5055 ft 263 kts 212°
2026-04-17 22:49 -38.57365 -72.47052 4757 ft 261 kts 212°
2026-04-17 22:49 -38.58943 -72.48170 4445 ft 258 kts 212°
2026-04-17 22:50 -38.60507 -72.49278 4152 ft 256 kts 212°
2026-04-17 22:50 -38.62039 -72.50362 3851 ft 254 kts 211°
2026-04-17 22:50 -38.63573 -72.51448 3597 ft 249 kts 211°
2026-04-17 22:50 -38.65059 -72.52500 3476 ft 237 kts 211°
2026-04-17 22:51 -38.66456 -72.53489 3456 ft 221 kts 211°
2026-04-17 22:51 -38.67746 -72.54403 3455 ft 205 kts 212°
2026-04-17 22:51 -38.68989 -72.55287 3477 ft 202 kts 212°
2026-04-17 22:51 -38.70137 -72.56101 3513 ft 176 kts 212°
2026-04-17 22:52 -38.71180 -72.56754 3451 ft 161 kts 203°
2026-04-17 22:52 -38.72248 -72.57169 3232 ft 160 kts 199°
2026-04-17 22:52 -38.73314 -72.57569 2972 ft 159 kts 199°
2026-04-17 22:52 -38.74377 -72.57982 2736 ft 159 kts 199°
2026-04-17 22:53 -38.75415 -72.58388 2532 ft 158 kts 199°
2026-04-17 22:53 -38.76467 -72.58801 2347 ft 158 kts 199°
2026-04-17 22:53 -38.77441 -72.59182 2135 ft 139 kts 199°
2026-04-17 22:53 -38.78357 -72.59546 1981 ft 138 kts 199°
2026-04-17 22:54 -38.79275 -72.59904 1983 ft 139 kts 199°
2026-04-17 22:54 -38.80209 -72.60272 1998 ft 141 kts 199°
2026-04-17 22:54 -38.81149 -72.60638 1991 ft 141 kts 199°
2026-04-17 22:54 -38.82084 -72.61004 1993 ft 140 kts 199°
2026-04-17 22:55 -38.83015 -72.61375 1991 ft 140 kts 199°
2026-04-17 22:55 -38.83952 -72.61742 1885 ft 140 kts 199°
2026-04-17 22:55 -38.84881 -72.62113 1680 ft 139 kts 200°
2026-04-17 22:55 -38.85803 -72.62477 1474 ft 139 kts 199°
2026-04-17 22:56 -38.86722 -72.62840 1295 ft 138 kts 199°
2026-04-17 22:56 -38.87641 -72.63205 1112 ft 138 kts 199°
2026-04-17 22:56 -38.88549 -72.63560 947 ft 138 kts 198°
2026-04-17 22:56 -38.89468 -72.63925 772 ft 139 kts 198°
2026-04-17 22:57 -38.90394 -72.64293 585 ft 139 kts 198°
2026-04-17 22:57 -38.91325 -72.64654 390 ft 140 kts 198°
2026-04-17 22:57 -38.92230 -72.65013 328 ft 125 kts 198°
2026-04-17 22:57 -38.92858 -72.65271 329 ft 53 kts 197°
2026-04-17 22:58 -38.92985 -72.65323 330 ft 6 kts 198°
2026-04-17 22:58 -38.93025 -72.65353 329 ft 8 kts 201°
2026-04-17 22:58 -38.93001 -72.65323 329 ft 9 kts
2026-04-17 22:58 -38.92931 -72.65302 332 ft 12 kts 15°
2026-04-17 22:59 -38.92856 -72.65251 331 ft 14 kts 69°
2026-04-17 22:59 -38.92860 -72.65126 329 ft 15 kts 104°
2026-04-17 22:59 -38.92862 -72.65118 331 ft 0 kts 104°
2026-04-17 22:59 -38.92862 -72.65115 331 ft 2 kts 104°
2026-04-17 23:00 -38.92873 -72.65060 329 ft 8 kts 104°
2026-04-17 23:00 -38.92865 -72.64976 328 ft 12 kts 50°
2026-04-17 23:00 -38.92785 -72.64932 327 ft 13 kts 14°
2026-04-17 23:00 -38.92736 -72.64913 329 ft 1 kts 18°
2026-04-17 23:01 -38.92724 -72.64895 328 ft 4 kts 59°
2026-04-17 23:01 -38.92725 -72.64843 330 ft 8 kts 105°
2026-04-17 23:01 -38.92729 -72.64828 327 ft 0 kts 106°